World > North America > United States > New York

Narrowsburg, New York Regional Weather

Lat: 41.60N, Lon: 75.07W
Wx Zone: NYZ062Web Search

Helpful Tip: Type the letters wx in the search engine next time you need to find us.

Feedback


°F Click to change Narrowsburg hourly weather to Imperial units.Click to change Narrowsburg hourly weather to Metric units. °C
Narrowsburg Weather Map
UTC Time: 5/9/2021, 23:38
Your Time:

Narrowsburg, NY Regional Weather

Expires:202105100000;;863196
ASUS41 KBGM 092310
RWRBGM

REGIONAL WEATHER ROUNDUP
NATIONAL WEATHER SERVICE BINGHAMTON NY
700 PM EDT SUN MAY 09 2021

Note: "fair" indicates few or no clouds below 12,000 feet with no
significant weather and/or obstructions to visibility.

* = Station(s) that does not report precipitation, such as rain, 
snow, etc, also no thunder or fog.


NYZ009-015>018-022>025-036-037-044>046-055>057-062-100000
...Central New York...
  
CITY           SKY/WX    TMP DP  RH WIND       PRES   REMARKS
Binghamton     LGT RAIN  39  39 100 SE9       29.88F FOG     WCI  33  
Cortland       LGT RAIN  41  37  87 S5        29.90S                  
Dansville      LGT RAIN  43  39  86 S6        29.88F                  
Elmira         RAIN      41  41 100 SE7       29.89F FOG              
Endicott       RAIN      41  41 100 CALM      29.90S                  
Ithaca         LGT RAIN  41  40  96 SE7       29.90F                  
Hamilton       CLOUDY    45  39  81 S5        29.89F                  
Monticello     RAIN      42  41  96 S5        29.93F FOG              
Norwich        LGT RAIN  43  41  93 S6        29.90F                  
Oneonta        DRIZZLE   43  41  93 CALM      29.89F                  
Penn Yan       LGT RAIN  43  38  82 VRB7      29.89S                  
Rome           LGT RAIN  47  42  83 N5        29.90F                  
Seneca Falls   LGT RAIN  45  43  93 S6        29.91S                  
Sidney         DRIZZLE   43  39  87 CALM      29.91F                  
Skaneateles    LGT RAIN  45  45 100 CALM      29.89S                  
Syracuse       CLOUDY    50  40  68 S10       29.90S                  
$$
 

SKY/WX - Weather  TMP - Temperature  DP - Dew Point  RH - Relative Humidity
WIND - Wind Direction/Speed PRES - Barometric Pressure VSB - Visibility
WCI - Wind Chill Index E13G22 Wind - East Wind 13 mph/Gusts of 22 mph